GFSNW_prec_pwat_180.txt.gz
Precipitable_Water
0.82 0.82 0.77 0.60 0.48 0.51 0.49 0.39 0.24 0.60 0.67 0.35 0.37 0.32 0.38 0.39 0.30 0.37 0.33 0.32 0.26 0.24 0.26 0.25 0.25 0.27 0.30 0.35 0.35 0.33 0.40 0.35 0.30 0.35 0.47 0.48 0.46 0.40 0.37 0.26 0.25 0.29 0.29 0.27
0.64 0.82 0.82 0.71 0.56 0.51 0.43 0.31 0.34 0.59 0.57 0.25 0.28 0.36 0.37 0.39 0.33 0.29 0.31 0.29 0.31 0.30 0.24 0.20 0.25 0.28 0.35 0.37 0.33 0.34 0.36 0.30 0.25 0.28 0.37 0.43 0.39 0.42 0.43 0.38 0.33 0.26 0.25 0.23
0.59 0.67 0.81 0.81 0.66 0.54 0.48 0.31 0.23 0.37 0.44 0.40 0.31 0.31 0.31 0.31 0.38 0.30 0.30 0.30 0.32 0.30 0.26 0.25 0.22 0.24 0.30 0.35 0.35 0.36 0.36 0.30 0.26 0.22 0.24 0.29 0.30 0.37 0.39 0.37 0.29 0.28 0.28 0.22
0.51 0.59 0.71 0.83 0.76 0.64 0.48 0.33 0.24 0.32 0.22 0.28 0.32 0.33 0.32 0.33 0.31 0.34 0.30 0.25 0.27 0.25 0.22 0.22 0.22 0.25 0.26 0.29 0.33 0.34 0.34 0.25 0.27 0.27 0.26 0.28 0.28 0.31 0.37 0.33 0.33 0.25 0.25 0.23
0.51 0.53 0.59 0.77 0.83 0.77 0.44 0.28 0.25 0.31 0.27 0.30 0.29 0.30 0.28 0.33 0.34 0.32 0.25 0.22 0.25 0.26 0.21 0.21 0.20 0.24 0.26 0.25 0.28 0.26 0.29 0.24 0.24 0.20 0.22 0.25 0.23 0.25 0.25 0.28 0.28 0.27 0.28 0.27
0.51 0.49 0.54 0.64 0.83 0.82 0.51 0.42 0.43 0.33 0.26 0.25 0.25 0.24 0.27 0.31 0.35 0.34 0.33 0.26 0.24 0.24 0.25 0.28 0.30 0.32 0.33 0.35 0.31 0.26 0.23 0.20 0.18 0.15 0.19 0.19 0.16 0.18 0.22 0.24 0.26 0.23 0.19 0.25
0.48 0.47 0.48 0.55 0.69 0.82 0.67 0.47 0.38 0.30 0.22 0.24 0.23 0.24 0.27 0.30 0.33 0.32 0.34 0.34 0.26 0.29 0.38 0.36 0.34 0.32 0.33 0.34 0.34 0.35 0.28 0.25 0.24 0.20 0.22 0.15 0.22 0.23 0.26 0.23 0.24 0.24 0.24 0.25
0.47 0.46 0.46 0.52 0.54 0.79 0.72 0.65 0.38 0.34 0.24 0.26 0.26 0.28 0.28 0.31 0.37 0.37 0.35 0.39 0.36 0.39 0.32 0.26 0.24 0.25 0.27 0.28 0.33 0.31 0.33 0.27 0.22 0.19 0.17 0.19 0.20 0.20 0.21 0.20 0.20 0.24 0.23 0.25
0.47 0.46 0.46 0.42 0.48 0.60 0.76 0.70 0.52 0.42 0.30 0.25 0.28 0.28 0.29 0.27 0.31 0.35 0.37 0.43 0.47 0.38 0.29 0.25 0.21 0.20 0.24 0.20 0.23 0.33 0.32 0.31 0.25 0.21 0.17 0.15 0.21 0.24 0.27 0.27 0.18 0.25 0.24 0.26
0.48 0.44 0.41 0.43 0.41 0.49 0.70 0.68 0.70 0.48 0.34 0.35 0.31 0.27 0.27 0.34 0.34 0.33 0.37 0.39 0.45 0.45 0.31 0.26 0.24 0.24 0.30 0.23 0.22 0.25 0.27 0.27 0.23 0.22 0.19 0.21 0.26 0.28 0.30 0.18 0.21 0.28 0.28 0.30
0.48 0.47 0.42 0.44 0.41 0.46 0.54 0.67 0.73 0.49 0.43 0.38 0.40 0.39 0.33 0.35 0.37 0.32 0.39 0.42 0.43 0.43 0.34 0.32 0.30 0.29 0.29 0.29 0.30 0.30 0.28 0.27 0.25 0.24 0.20 0.17 0.29 0.27 0.21 0.26 0.29 0.30 0.31 0.33
0.61 0.63 0.56 0.41 0.39 0.45 0.59 0.63 0.73 0.67 0.52 0.43 0.51 0.49 0.49 0.46 0.45 0.41 0.43 0.41 0.44 0.47 0.39 0.36 0.36 0.33 0.36 0.34 0.29 0.36 0.31 0.34 0.31 0.30 0.28 0.35 0.35 0.32 0.34 0.35 0.33 0.34 0.35 0.37
0.58 0.60 0.60 0.56 0.40 0.45 0.49 0.69 0.69 0.65 0.55 0.50 0.48 0.43 0.52 0.57 0.56 0.59 0.43 0.48 0.50 0.49 0.52 0.44 0.43 0.38 0.41 0.35 0.35 0.37 0.40 0.43 0.38 0.37 0.37 0.37 0.38 0.39 0.40 0.41 0.40 0.42 0.41 0.40
0.60 0.69 0.67 0.57 0.47 0.52 0.58 0.71 0.72 0.66 0.53 0.44 0.44 0.63 0.55 0.62 0.60 0.58 0.61 0.57 0.58 0.56 0.53 0.47 0.43 0.38 0.44 0.39 0.40 0.40 0.43 0.45 0.42 0.40 0.41 0.42 0.44 0.46 0.46 0.47 0.48 0.46 0.47 0.47
0.50 0.70 0.73 0.58 0.53 0.59 0.69 0.77 0.74 0.73 0.58 0.49 0.47 0.58 0.65 0.66 0.64 0.62 0.62 0.58 0.55 0.51 0.43 0.39 0.35 0.38 0.37 0.39 0.40 0.36 0.41 0.40 0.39 0.38 0.45 0.45 0.46 0.49 0.51 0.48 0.47 0.49 0.49 0.48
0.61 0.58 0.55 0.52 0.53 0.68 0.71 0.58 0.76 0.81 0.77 0.59 0.44 0.61 0.63 0.67 0.67 0.65 0.63 0.59 0.55 0.49 0.40 0.37 0.38 0.43 0.40 0.34 0.30 0.37 0.41 0.44 0.44 0.43 0.49 0.50 0.52 0.53 0.53 0.50 0.50 0.50 0.49 0.50
0.75 0.71 0.69 0.66 0.77 0.78 0.62 0.55 0.72 0.81 0.86 0.61 0.45 0.48 0.63 0.66 0.65 0.64 0.61 0.60 0.52 0.46 0.41 0.35 0.36 0.41 0.44 0.37 0.31 0.41 0.45 0.47 0.48 0.51 0.52 0.49 0.52 0.49 0.54 0.54 0.53 0.53 0.52 0.50
0.80 0.80 0.78 0.80 0.83 0.80 0.68 0.79 0.89 0.88 0.73 0.65 0.48 0.47 0.53 0.64 0.53 0.50 0.57 0.49 0.49 0.46 0.41 0.40 0.37 0.43 0.43 0.35 0.42 0.46 0.47 0.48 0.50 0.52 0.53 0.52 0.53 0.55 0.55 0.55 0.51 0.47 0.46 0.46
0.81 0.79 0.83 0.76 0.69 0.62 0.66 0.85 0.86 0.86 0.71 0.52 0.51 0.39 0.38 0.58 0.50 0.50 0.49 0.49 0.39 0.47 0.38 0.38 0.41 0.38 0.35 0.41 0.43 0.45 0.47 0.48 0.50 0.53 0.53 0.53 0.52 0.51 0.51 0.50 0.48 0.46 0.46 0.47
0.76 0.73 0.61 0.51 0.66 0.83 0.82 0.72 0.63 0.62 0.62 0.59 0.47 0.51 0.41 0.48 0.43 0.41 0.41 0.44 0.38 0.32 0.37 0.44 0.36 0.34 0.44 0.47 0.48 0.49 0.50 0.52 0.53 0.50 0.49 0.52 0.50 0.49 0.49 0.48 0.49 0.48 0.47 0.46
0.62 0.54 0.52 0.66 0.77 0.67 0.58 0.48 0.46 0.47 0.41 0.47 0.47 0.45 0.37 0.46 0.34 0.35 0.41 0.36 0.38 0.29 0.33 0.34 0.32 0.31 0.39 0.47 0.48 0.51 0.53 0.54 0.55 0.56 0.56 0.56 0.53 0.49 0.48 0.48 0.48 0.49 0.49 0.47
0.59 0.58 0.65 0.64 0.55 0.49 0.41 0.36 0.41 0.41 0.36 0.41 0.37 0.37 0.40 0.42 0.46 0.38 0.40 0.33 0.35 0.25 0.38 0.32 0.25 0.33 0.42 0.44 0.45 0.46 0.47 0.48 0.49 0.51 0.50 0.51 0.50 0.49 0.48 0.48 0.48 0.48 0.48 0.47
0.59 0.52 0.46 0.44 0.41 0.32 0.31 0.29 0.30 0.29 0.36 0.39 0.39 0.35 0.42 0.43 0.46 0.41 0.38 0.31 0.30 0.39 0.30 0.26 0.31 0.40 0.42 0.43 0.45 0.45 0.46 0.46 0.46 0.47 0.48 0.49 0.47 0.47 0.46 0.45 0.46 0.46 0.44 0.44
0.41 0.37 0.30 0.32 0.29 0.31 0.32 0.31 0.32 0.37 0.39 0.39 0.41 0.39 0.39 0.43 0.39 0.41 0.33 0.35 0.36 0.28 0.24 0.25 0.36 0.39 0.41 0.43 0.44 0.44 0.44 0.46 0.46 0.46 0.46 0.47 0.46 0.44 0.44 0.42 0.41 0.39 0.38 0.38
0.35 0.34 0.26 0.28 0.33 0.36 0.37 0.40 0.40 0.42 0.46 0.44 0.42 0.42 0.42 0.40 0.38 0.39 0.36 0.31 0.27 0.28 0.27 0.34 0.40 0.41 0.40 0.39 0.41 0.42 0.44 0.45 0.45 0.44 0.42 0.41 0.40 0.39 0.39 0.40 0.40 0.40 0.38 0.36
0.32 0.33 0.29 0.32 0.30 0.31 0.34 0.36 0.37 0.44 0.44 0.46 0.44 0.37 0.34 0.33 0.35 0.31 0.30 0.29 0.25 0.28 0.35 0.39 0.40 0.40 0.41 0.42 0.43 0.44 0.43 0.42 0.40 0.40 0.39 0.38 0.36 0.35 0.34 0.34 0.33 0.32 0.32 0.30
0.26 0.28 0.34 0.33 0.31 0.30 0.32 0.34 0.36 0.44 0.39 0.34 0.36 0.30 0.29 0.35 0.29 0.28 0.32 0.29 0.33 0.37 0.39 0.42 0.42 0.40 0.40 0.40 0.39 0.38 0.38 0.37 0.37 0.37 0.36 0.36 0.36 0.35 0.33 0.31 0.30 0.30 0.30 0.29

GFSNW_prec_pwat_183.txt.gz
Precipitable_Water
0.63 0.67 0.85 0.84 0.78 0.68 0.43 0.37 0.22 0.54 0.61 0.31 0.32 0.24 0.29 0.34 0.35 0.42 0.34 0.33 0.29 0.27 0.30 0.25 0.22 0.24 0.29 0.36 0.35 0.30 0.39 0.34 0.28 0.30 0.46 0.48 0.45 0.40 0.41 0.30 0.26 0.29 0.27 0.24
0.54 0.62 0.67 0.77 0.84 0.78 0.46 0.29 0.35 0.54 0.53 0.21 0.23 0.28 0.27 0.31 0.31 0.36 0.34 0.28 0.31 0.33 0.29 0.25 0.25 0.25 0.33 0.34 0.33 0.31 0.34 0.29 0.23 0.27 0.36 0.41 0.36 0.39 0.42 0.44 0.37 0.28 0.24 0.27
0.50 0.52 0.61 0.68 0.84 0.83 0.65 0.30 0.23 0.35 0.40 0.35 0.25 0.23 0.22 0.24 0.34 0.32 0.39 0.31 0.31 0.28 0.26 0.29 0.24 0.25 0.30 0.34 0.33 0.36 0.36 0.28 0.26 0.21 0.23 0.29 0.29 0.37 0.40 0.39 0.31 0.31 0.30 0.29
0.59 0.54 0.55 0.64 0.78 0.84 0.70 0.42 0.22 0.33 0.23 0.27 0.29 0.30 0.27 0.23 0.23 0.32 0.38 0.32 0.27 0.25 0.22 0.22 0.22 0.25 0.26 0.30 0.33 0.32 0.32 0.23 0.26 0.27 0.26 0.26 0.26 0.26 0.31 0.33 0.36 0.29 0.29 0.27
0.65 0.57 0.56 0.58 0.67 0.79 0.64 0.43 0.32 0.33 0.26 0.32 0.27 0.27 0.21 0.20 0.26 0.28 0.28 0.32 0.29 0.30 0.22 0.24 0.21 0.25 0.25 0.26 0.32 0.28 0.29 0.20 0.21 0.18 0.21 0.21 0.20 0.22 0.25 0.28 0.30 0.32 0.31 0.30
0.57 0.54 0.56 0.52 0.57 0.74 0.60 0.62 0.57 0.41 0.24 0.27 0.23 0.23 0.22 0.22 0.27 0.28 0.29 0.32 0.30 0.27 0.28 0.30 0.32 0.32 0.32 0.31 0.30 0.30 0.29 0.25 0.22 0.19 0.22 0.23 0.20 0.21 0.23 0.26 0.27 0.25 0.21 0.29
0.49 0.48 0.52 0.54 0.54 0.64 0.70 0.65 0.61 0.43 0.27 0.22 0.24 0.24 0.26 0.24 0.27 0.23 0.28 0.32 0.31 0.34 0.40 0.36 0.33 0.33 0.33 0.32 0.34 0.35 0.28 0.27 0.25 0.20 0.22 0.16 0.22 0.23 0.26 0.24 0.26 0.27 0.28 0.31
0.48 0.47 0.44 0.46 0.48 0.49 0.60 0.76 0.64 0.53 0.34 0.33 0.23 0.26 0.26 0.25 0.28 0.29 0.29 0.33 0.39 0.41 0.36 0.30 0.22 0.26 0.30 0.31 0.31 0.33 0.33 0.30 0.25 0.21 0.19 0.19 0.22 0.20 0.22 0.22 0.21 0.26 0.25 0.28
0.53 0.53 0.51 0.47 0.46 0.47 0.46 0.53 0.69 0.56 0.43 0.35 0.33 0.26 0.28 0.23 0.25 0.28 0.31 0.39 0.45 0.39 0.32 0.29 0.21 0.18 0.24 0.25 0.28 0.34 0.35 0.34 0.27 0.24 0.19 0.16 0.22 0.25 0.28 0.26 0.18 0.26 0.26 0.27
0.48 0.50 0.52 0.51 0.47 0.46 0.46 0.42 0.53 0.58 0.43 0.47 0.40 0.29 0.26 0.29 0.26 0.26 0.30 0.34 0.35 0.40 0.29 0.28 0.27 0.23 0.28 0.25 0.24 0.26 0.29 0.30 0.26 0.25 0.21 0.21 0.26 0.28 0.30 0.21 0.22 0.27 0.28 0.30
0.49 0.51 0.52 0.53 0.50 0.50 0.44 0.40 0.47 0.44 0.45 0.49 0.48 0.44 0.35 0.32 0.30 0.26 0.33 0.31 0.33 0.31 0.27 0.29 0.30 0.30 0.31 0.28 0.30 0.30 0.30 0.29 0.28 0.27 0.23 0.19 0.30 0.28 0.23 0.28 0.31 0.31 0.31 0.33
0.49 0.53 0.54 0.53 0.54 0.56 0.54 0.34 0.47 0.50 0.48 0.50 0.60 0.56 0.48 0.41 0.41 0.35 0.36 0.31 0.31 0.33 0.31 0.32 0.36 0.34 0.34 0.32 0.29 0.37 0.31 0.34 0.33 0.33 0.31 0.38 0.36 0.33 0.35 0.36 0.35 0.35 0.36 0.38
0.51 0.53 0.56 0.61 0.65 0.65 0.61 0.45 0.42 0.46 0.35 0.47 0.51 0.46 0.52 0.48 0.48 0.53 0.35 0.37 0.37 0.37 0.44 0.39 0.38 0.36 0.41 0.36 0.36 0.37 0.39 0.43 0.38 0.38 0.41 0.41 0.41 0.41 0.41 0.41 0.41 0.43 0.43 0.43
0.53 0.57 0.62 0.60 0.56 0.61 0.64 0.57 0.48 0.43 0.36 0.34 0.42 0.57 0.52 0.52 0.52 0.51 0.51 0.45 0.45 0.46 0.45 0.39 0.40 0.39 0.48 0.42 0.42 0.40 0.43 0.44 0.42 0.41 0.43 0.43 0.44 0.45 0.47 0.48 0.50 0.49 0.50 0.48
0.58 0.66 0.63 0.50 0.56 0.65 0.67 0.62 0.59 0.50 0.37 0.33 0.35 0.49 0.52 0.56 0.52 0.52 0.51 0.48 0.45 0.43 0.41 0.40 0.40 0.45 0.45 0.44 0.41 0.37 0.43 0.38 0.34 0.34 0.43 0.44 0.45 0.50 0.53 0.51 0.50 0.50 0.49 0.49
0.65 0.69 0.67 0.55 0.68 0.77 0.64 0.47 0.58 0.57 0.51 0.44 0.37 0.52 0.52 0.54 0.55 0.52 0.51 0.50 0.49 0.49 0.46 0.46 0.48 0.49 0.41 0.32 0.27 0.35 0.40 0.42 0.42 0.39 0.45 0.47 0.50 0.53 0.55 0.53 0.52 0.52 0.51 0.52
0.68 0.76 0.68 0.61 0.75 0.69 0.50 0.37 0.49 0.64 0.59 0.44 0.41 0.41 0.49 0.58 0.57 0.53 0.52 0.55 0.53 0.53 0.52 0.48 0.43 0.40 0.39 0.31 0.25 0.37 0.42 0.45 0.46 0.48 0.47 0.45 0.49 0.48 0.54 0.54 0.55 0.56 0.56 0.54
0.71 0.77 0.65 0.61 0.64 0.60 0.50 0.61 0.66 0.64 0.55 0.56 0.41 0.39 0.44 0.58 0.48 0.49 0.59 0.53 0.57 0.57 0.52 0.47 0.39 0.39 0.37 0.29 0.34 0.40 0.44 0.46 0.48 0.49 0.50 0.49 0.52 0.53 0.54 0.56 0.56 0.53 0.50 0.50
0.72 0.79 0.72 0.65 0.58 0.48 0.53 0.66 0.76 0.74 0.59 0.43 0.45 0.38 0.38 0.59 0.52 0.56 0.56 0.59 0.49 0.57 0.43 0.40 0.40 0.34 0.27 0.33 0.36 0.40 0.44 0.46 0.47 0.50 0.51 0.51 0.51 0.52 0.52 0.52 0.51 0.48 0.48 0.49
0.71 0.70 0.56 0.48 0.57 0.72 0.71 0.61 0.51 0.53 0.55 0.55 0.43 0.52 0.43 0.51 0.48 0.48 0.51 0.53 0.45 0.37 0.40 0.46 0.36 0.32 0.37 0.38 0.41 0.43 0.45 0.48 0.49 0.47 0.47 0.51 0.50 0.51 0.52 0.52 0.52 0.50 0.49 0.49
0.60 0.52 0.49 0.61 0.73 0.61 0.53 0.43 0.42 0.44 0.41 0.48 0.49 0.51 0.44 0.58 0.47 0.45 0.49 0.44 0.44 0.33 0.37 0.37 0.32 0.28 0.35 0.40 0.41 0.44 0.47 0.49 0.51 0.53 0.54 0.56 0.56 0.55 0.54 0.53 0.52 0.51 0.51 0.49
0.55 0.56 0.62 0.61 0.53 0.47 0.40 0.38 0.43 0.41 0.38 0.48 0.46 0.49 0.53 0.54 0.57 0.47 0.47 0.40 0.40 0.30 0.41 0.33 0.24 0.29 0.36 0.39 0.40 0.43 0.45 0.46 0.46 0.48 0.48 0.50 0.51 0.51 0.50 0.49 0.50 0.50 0.51 0.51
0.58 0.52 0.47 0.43 0.42 0.33 0.32 0.29 0.34 0.35 0.43 0.47 0.47 0.43 0.48 0.50 0.52 0.44 0.41 0.34 0.31 0.39 0.30 0.25 0.27 0.33 0.35 0.38 0.40 0.41 0.42 0.44 0.44 0.45 0.47 0.47 0.46 0.47 0.46 0.46 0.47 0.47 0.46 0.46
0.42 0.37 0.31 0.32 0.30 0.30 0.30 0.33 0.34 0.41 0.45 0.46 0.46 0.43 0.41 0.43 0.39 0.39 0.32 0.35 0.36 0.27 0.22 0.21 0.29 0.33 0.36 0.40 0.42 0.42 0.42 0.43 0.44 0.44 0.45 0.45 0.45 0.44 0.44 0.44 0.44 0.42 0.39 0.39
0.36 0.35 0.26 0.28 0.33 0.35 0.37 0.40 0.39 0.42 0.46 0.46 0.43 0.42 0.42 0.39 0.37 0.37 0.33 0.29 0.25 0.26 0.24 0.29 0.35 0.36 0.38 0.39 0.40 0.41 0.41 0.42 0.41 0.42 0.42 0.42 0.42 0.42 0.41 0.41 0.40 0.39 0.38 0.38
0.36 0.33 0.29 0.32 0.31 0.32 0.36 0.38 0.38 0.45 0.47 0.48 0.45 0.38 0.35 0.33 0.35 0.31 0.29 0.27 0.23 0.27 0.33 0.37 0.37 0.37 0.38 0.40 0.42 0.42 0.42 0.41 0.41 0.40 0.39 0.39 0.38 0.38 0.36 0.35 0.35 0.35 0.34 0.33
0.30 0.28 0.34 0.32 0.32 0.31 0.33 0.36 0.38 0.46 0.42 0.35 0.36 0.30 0.29 0.35 0.30 0.27 0.30 0.26 0.30 0.35 0.36 0.38 0.39 0.39 0.39 0.41 0.41 0.41 0.41 0.40 0.40 0.39 0.38 0.37 0.37 0.37 0.35 0.33 0.34 0.33 0.32 0.32

GFSNW_prec_pwat_189.txt.gz
Precipitable_Water
0.59 0.57 0.56 0.62 0.69 0.78 0.81 0.65 0.34 0.63 0.66 0.28 0.30 0.20 0.23 0.30 0.27 0.29 0.25 0.25 0.26 0.22 0.25 0.25 0.25 0.25 0.26 0.36 0.36 0.28 0.33 0.30 0.21 0.21 0.33 0.42 0.40 0.35 0.34 0.27 0.26 0.32 0.30 0.26
0.66 0.62 0.61 0.60 0.71 0.75 0.69 0.51 0.46 0.67 0.62 0.21 0.23 0.28 0.27 0.30 0.28 0.27 0.23 0.22 0.29 0.29 0.27 0.21 0.26 0.28 0.33 0.34 0.33 0.29 0.33 0.28 0.21 0.19 0.30 0.35 0.32 0.33 0.33 0.33 0.35 0.28 0.25 0.26
0.66 0.68 0.64 0.63 0.64 0.75 0.74 0.50 0.35 0.49 0.50 0.45 0.32 0.26 0.23 0.21 0.31 0.28 0.28 0.27 0.30 0.27 0.25 0.30 0.23 0.25 0.33 0.33 0.33 0.37 0.37 0.28 0.23 0.18 0.21 0.26 0.23 0.26 0.30 0.29 0.24 0.25 0.30 0.32
0.56 0.60 0.65 0.65 0.63 0.70 0.78 0.58 0.46 0.44 0.36 0.35 0.35 0.35 0.30 0.23 0.26 0.33 0.31 0.26 0.27 0.23 0.20 0.23 0.21 0.27 0.31 0.35 0.35 0.36 0.34 0.24 0.26 0.26 0.27 0.26 0.26 0.24 0.24 0.23 0.26 0.24 0.25 0.28
0.47 0.49 0.58 0.67 0.62 0.62 0.57 0.50 0.46 0.52 0.46 0.42 0.36 0.37 0.32 0.27 0.29 0.32 0.27 0.25 0.23 0.26 0.21 0.23 0.20 0.25 0.27 0.27 0.33 0.31 0.37 0.25 0.28 0.23 0.26 0.25 0.24 0.24 0.23 0.23 0.24 0.27 0.28 0.28
0.44 0.41 0.47 0.59 0.63 0.56 0.45 0.56 0.65 0.53 0.47 0.43 0.37 0.33 0.33 0.31 0.33 0.31 0.35 0.32 0.29 0.25 0.25 0.29 0.32 0.32 0.32 0.30 0.30 0.30 0.32 0.30 0.26 0.22 0.26 0.25 0.19 0.19 0.21 0.23 0.27 0.29 0.25 0.29
0.41 0.44 0.48 0.51 0.58 0.57 0.46 0.44 0.52 0.43 0.34 0.37 0.39 0.38 0.39 0.36 0.35 0.32 0.34 0.37 0.31 0.32 0.39 0.35 0.34 0.33 0.30 0.30 0.29 0.36 0.31 0.31 0.30 0.25 0.26 0.16 0.23 0.23 0.24 0.24 0.26 0.29 0.30 0.33
0.44 0.50 0.57 0.52 0.53 0.57 0.50 0.46 0.38 0.33 0.26 0.33 0.34 0.35 0.39 0.39 0.40 0.39 0.40 0.40 0.39 0.40 0.33 0.24 0.18 0.19 0.21 0.26 0.31 0.34 0.39 0.33 0.28 0.25 0.25 0.24 0.24 0.23 0.22 0.20 0.22 0.27 0.33 0.37
0.48 0.55 0.62 0.61 0.59 0.56 0.54 0.50 0.51 0.37 0.23 0.19 0.27 0.30 0.36 0.33 0.32 0.34 0.37 0.46 0.47 0.40 0.29 0.24 0.15 0.13 0.16 0.16 0.22 0.33 0.38 0.40 0.32 0.29 0.25 0.19 0.24 0.26 0.28 0.30 0.20 0.27 0.30 0.32
0.58 0.60 0.57 0.56 0.53 0.54 0.53 0.48 0.52 0.42 0.28 0.29 0.24 0.23 0.29 0.41 0.38 0.33 0.35 0.36 0.39 0.45 0.32 0.23 0.18 0.15 0.20 0.15 0.16 0.21 0.28 0.33 0.31 0.30 0.28 0.30 0.31 0.30 0.30 0.21 0.22 0.28 0.30 0.30
0.58 0.55 0.53 0.50 0.49 0.49 0.51 0.44 0.49 0.43 0.31 0.31 0.36 0.30 0.23 0.24 0.32 0.32 0.39 0.35 0.37 0.35 0.28 0.24 0.21 0.19 0.19 0.18 0.20 0.21 0.24 0.25 0.29 0.32 0.29 0.26 0.38 0.35 0.26 0.29 0.33 0.31 0.32 0.34
0.53 0.52 0.50 0.47 0.45 0.44 0.48 0.41 0.45 0.49 0.38 0.34 0.44 0.41 0.38 0.31 0.33 0.33 0.45 0.40 0.40 0.39 0.31 0.31 0.28 0.21 0.21 0.19 0.15 0.25 0.22 0.29 0.28 0.33 0.34 0.42 0.43 0.42 0.41 0.40 0.37 0.37 0.37 0.39
0.45 0.44 0.43 0.42 0.43 0.43 0.43 0.44 0.47 0.44 0.37 0.35 0.35 0.33 0.42 0.43 0.38 0.41 0.33 0.44 0.48 0.43 0.46 0.38 0.33 0.24 0.26 0.18 0.18 0.22 0.27 0.35 0.30 0.33 0.40 0.44 0.45 0.47 0.45 0.45 0.41 0.43 0.46 0.48
0.41 0.41 0.41 0.40 0.39 0.39 0.41 0.42 0.48 0.45 0.41 0.29 0.27 0.46 0.40 0.45 0.41 0.35 0.45 0.42 0.45 0.53 0.48 0.38 0.34 0.29 0.32 0.23 0.25 0.24 0.28 0.32 0.32 0.34 0.42 0.48 0.48 0.49 0.47 0.46 0.48 0.49 0.51 0.54
0.39 0.39 0.40 0.39 0.38 0.39 0.42 0.45 0.49 0.51 0.40 0.28 0.30 0.41 0.41 0.42 0.40 0.35 0.32 0.33 0.28 0.38 0.41 0.36 0.33 0.37 0.35 0.31 0.28 0.24 0.31 0.35 0.37 0.38 0.47 0.41 0.39 0.44 0.47 0.45 0.45 0.48 0.50 0.51
0.37 0.38 0.38 0.37 0.36 0.35 0.38 0.31 0.42 0.51 0.52 0.36 0.24 0.40 0.40 0.42 0.42 0.38 0.35 0.31 0.34 0.38 0.41 0.39 0.40 0.43 0.37 0.28 0.22 0.28 0.33 0.44 0.47 0.43 0.46 0.43 0.41 0.44 0.48 0.47 0.49 0.52 0.52 0.52
0.33 0.33 0.33 0.32 0.31 0.35 0.34 0.34 0.49 0.67 0.64 0.42 0.33 0.32 0.42 0.45 0.44 0.43 0.39 0.39 0.34 0.35 0.42 0.39 0.39 0.38 0.39 0.32 0.25 0.31 0.38 0.46 0.49 0.47 0.45 0.38 0.41 0.40 0.48 0.50 0.51 0.52 0.53 0.54
0.30 0.30 0.29 0.28 0.37 0.47 0.46 0.58 0.66 0.69 0.56 0.50 0.34 0.33 0.35 0.48 0.37 0.36 0.46 0.38 0.40 0.37 0.35 0.35 0.36 0.42 0.36 0.27 0.33 0.35 0.40 0.48 0.49 0.41 0.41 0.42 0.44 0.45 0.46 0.48 0.49 0.48 0.50 0.53
0.30 0.28 0.31 0.44 0.52 0.48 0.53 0.70 0.69 0.69 0.57 0.38 0.35 0.28 0.26 0.45 0.39 0.41 0.42 0.44 0.33 0.43 0.38 0.37 0.39 0.34 0.25 0.28 0.34 0.37 0.42 0.46 0.47 0.41 0.41 0.42 0.42 0.43 0.45 0.46 0.48 0.47 0.47 0.49
0.29 0.36 0.44 0.42 0.55 0.69 0.67 0.54 0.45 0.46 0.47 0.45 0.34 0.38 0.29 0.37 0.37 0.35 0.36 0.41 0.34 0.27 0.34 0.44 0.36 0.30 0.35 0.37 0.41 0.44 0.47 0.54 0.50 0.40 0.38 0.39 0.40 0.42 0.43 0.44 0.47 0.49 0.48 0.49
0.31 0.36 0.38 0.52 0.64 0.56 0.47 0.36 0.36 0.39 0.34 0.39 0.39 0.37 0.32 0.43 0.32 0.33 0.39 0.36 0.37 0.27 0.30 0.31 0.31 0.28 0.33 0.40 0.41 0.48 0.52 0.52 0.49 0.49 0.47 0.46 0.46 0.45 0.46 0.47 0.48 0.50 0.51 0.51
0.38 0.41 0.49 0.49 0.45 0.41 0.33 0.29 0.31 0.29 0.27 0.37 0.34 0.36 0.38 0.40 0.45 0.35 0.39 0.34 0.37 0.28 0.39 0.33 0.26 0.32 0.38 0.41 0.45 0.51 0.54 0.49 0.48 0.49 0.47 0.47 0.47 0.49 0.50 0.49 0.50 0.51 0.51 0.50
0.42 0.41 0.37 0.37 0.36 0.28 0.26 0.25 0.27 0.29 0.36 0.39 0.38 0.35 0.37 0.40 0.44 0.39 0.36 0.30 0.31 0.42 0.33 0.30 0.31 0.37 0.41 0.44 0.49 0.55 0.52 0.50 0.50 0.49 0.48 0.49 0.48 0.48 0.48 0.48 0.49 0.49 0.47 0.48
0.34 0.31 0.26 0.28 0.26 0.27 0.28 0.30 0.32 0.38 0.40 0.42 0.42 0.39 0.39 0.40 0.36 0.38 0.32 0.36 0.38 0.30 0.27 0.27 0.34 0.39 0.43 0.47 0.52 0.50 0.47 0.46 0.46 0.45 0.46 0.44 0.43 0.44 0.45 0.45 0.46 0.44 0.44 0.44
0.30 0.31 0.23 0.25 0.31 0.33 0.35 0.38 0.38 0.41 0.45 0.44 0.42 0.43 0.43 0.39 0.36 0.37 0.35 0.31 0.28 0.30 0.29 0.34 0.40 0.44 0.47 0.47 0.46 0.45 0.44 0.44 0.44 0.43 0.42 0.43 0.42 0.41 0.40 0.41 0.42 0.42 0.41 0.41
0.32 0.29 0.26 0.29 0.30 0.31 0.33 0.36 0.37 0.44 0.44 0.46 0.45 0.38 0.35 0.33 0.35 0.32 0.29 0.28 0.26 0.31 0.36 0.41 0.43 0.44 0.44 0.44 0.43 0.43 0.43 0.43 0.43 0.42 0.42 0.41 0.41 0.39 0.38 0.38 0.37 0.37 0.38 0.37
0.27 0.26 0.31 0.30 0.30 0.31 0.33 0.37 0.39 0.46 0.42 0.36 0.38 0.31 0.30 0.35 0.29 0.27 0.32 0.29 0.33 0.37 0.39 0.41 0.41 0.40 0.40 0.40 0.40 0.39 0.39 0.38 0.37 0.37 0.37 0.35 0.36 0.36 0.36 0.35 0.36 0.35 0.34 0.33

GFSNW_prec_pwat_192.txt.gz
Precipitable_Water
0.62 0.59 0.57 0.55 0.61 0.72 0.73 0.60 0.37 0.68 0.77 0.33 0.29 0.20 0.23 0.32 0.27 0.31 0.28 0.24 0.21 0.20 0.23 0.22 0.23 0.21 0.24 0.36 0.36 0.28 0.33 0.29 0.22 0.22 0.31 0.38 0.37 0.35 0.36 0.26 0.22 0.27 0.25 0.24
0.61 0.62 0.64 0.56 0.60 0.72 0.66 0.52 0.50 0.66 0.65 0.29 0.27 0.29 0.27 0.33 0.28 0.27 0.28 0.23 0.23 0.28 0.25 0.20 0.23 0.25 0.29 0.34 0.33 0.29 0.33 0.28 0.19 0.19 0.27 0.34 0.31 0.34 0.36 0.34 0.31 0.25 0.21 0.24
0.57 0.60 0.64 0.63 0.53 0.64 0.70 0.49 0.33 0.47 0.51 0.48 0.37 0.36 0.26 0.23 0.28 0.28 0.31 0.27 0.30 0.29 0.25 0.27 0.23 0.24 0.27 0.34 0.36 0.37 0.36 0.30 0.25 0.18 0.21 0.25 0.23 0.26 0.28 0.28 0.24 0.23 0.22 0.24
0.49 0.50 0.56 0.59 0.58 0.52 0.63 0.53 0.39 0.45 0.37 0.43 0.44 0.43 0.34 0.27 0.26 0.36 0.36 0.28 0.27 0.29 0.24 0.22 0.21 0.24 0.26 0.30 0.34 0.37 0.34 0.24 0.29 0.28 0.27 0.28 0.26 0.24 0.25 0.24 0.26 0.24 0.23 0.26
0.46 0.47 0.44 0.52 0.63 0.55 0.43 0.45 0.45 0.48 0.47 0.48 0.42 0.42 0.36 0.33 0.32 0.32 0.29 0.28 0.27 0.32 0.27 0.26 0.22 0.24 0.26 0.26 0.31 0.32 0.36 0.26 0.30 0.26 0.28 0.27 0.24 0.24 0.23 0.23 0.25 0.26 0.28 0.26
0.47 0.45 0.42 0.46 0.57 0.57 0.38 0.45 0.60 0.52 0.44 0.42 0.39 0.37 0.37 0.37 0.39 0.38 0.39 0.36 0.31 0.27 0.31 0.34 0.34 0.34 0.31 0.31 0.29 0.30 0.29 0.30 0.28 0.24 0.29 0.28 0.20 0.21 0.20 0.22 0.25 0.28 0.23 0.28
0.44 0.48 0.45 0.48 0.50 0.58 0.49 0.42 0.38 0.35 0.30 0.35 0.37 0.40 0.41 0.40 0.40 0.36 0.37 0.38 0.33 0.37 0.42 0.39 0.36 0.31 0.27 0.25 0.24 0.32 0.25 0.29 0.32 0.25 0.28 0.21 0.24 0.26 0.25 0.23 0.24 0.30 0.31 0.30
0.49 0.46 0.48 0.53 0.51 0.56 0.52 0.52 0.41 0.30 0.21 0.25 0.28 0.32 0.37 0.40 0.38 0.37 0.35 0.39 0.42 0.46 0.41 0.32 0.26 0.19 0.17 0.20 0.24 0.27 0.29 0.28 0.27 0.25 0.25 0.29 0.27 0.26 0.23 0.23 0.21 0.26 0.30 0.32
0.48 0.50 0.54 0.57 0.60 0.61 0.57 0.53 0.56 0.42 0.28 0.22 0.23 0.19 0.23 0.22 0.26 0.28 0.33 0.39 0.46 0.43 0.36 0.30 0.23 0.20 0.18 0.14 0.19 0.27 0.29 0.30 0.27 0.28 0.25 0.22 0.30 0.31 0.30 0.29 0.22 0.26 0.29 0.31
0.54 0.57 0.58 0.59 0.60 0.60 0.57 0.50 0.54 0.45 0.30 0.33 0.29 0.23 0.21 0.27 0.25 0.26 0.31 0.35 0.34 0.40 0.29 0.24 0.24 0.25 0.29 0.16 0.14 0.15 0.20 0.24 0.22 0.26 0.26 0.30 0.37 0.35 0.35 0.21 0.23 0.28 0.30 0.31
0.60 0.60 0.60 0.58 0.57 0.57 0.54 0.47 0.54 0.44 0.34 0.33 0.37 0.36 0.27 0.24 0.23 0.21 0.34 0.33 0.34 0.32 0.25 0.24 0.24 0.23 0.23 0.22 0.20 0.17 0.16 0.18 0.19 0.25 0.24 0.24 0.40 0.38 0.35 0.33 0.34 0.32 0.33 0.34
0.53 0.54 0.54 0.53 0.52 0.51 0.52 0.41 0.48 0.51 0.40 0.34 0.41 0.41 0.41 0.38 0.31 0.27 0.28 0.26 0.34 0.38 0.29 0.29 0.29 0.23 0.23 0.20 0.16 0.24 0.16 0.20 0.19 0.23 0.25 0.36 0.41 0.45 0.44 0.48 0.39 0.37 0.37 0.39
0.46 0.45 0.46 0.45 0.45 0.44 0.46 0.42 0.42 0.41 0.34 0.31 0.33 0.31 0.37 0.41 0.40 0.38 0.26 0.26 0.31 0.33 0.49 0.40 0.34 0.25 0.27 0.20 0.20 0.23 0.24 0.26 0.22 0.23 0.28 0.35 0.38 0.47 0.56 0.50 0.47 0.44 0.45 0.47
0.40 0.42 0.43 0.43 0.43 0.42 0.43 0.38 0.38 0.37 0.33 0.22 0.24 0.35 0.33 0.38 0.42 0.38 0.36 0.34 0.34 0.32 0.42 0.39 0.35 0.28 0.34 0.25 0.26 0.24 0.27 0.28 0.24 0.24 0.29 0.34 0.41 0.49 0.52 0.47 0.49 0.51 0.54 0.53
0.38 0.39 0.40 0.40 0.40 0.42 0.42 0.41 0.40 0.40 0.29 0.19 0.22 0.33 0.39 0.41 0.43 0.41 0.40 0.41 0.36 0.29 0.25 0.30 0.31 0.37 0.36 0.35 0.31 0.24 0.30 0.27 0.24 0.23 0.33 0.38 0.49 0.51 0.47 0.42 0.42 0.44 0.45 0.47
0.34 0.34 0.34 0.35 0.36 0.35 0.35 0.26 0.34 0.30 0.27 0.23 0.16 0.28 0.29 0.35 0.39 0.42 0.41 0.42 0.41 0.37 0.31 0.31 0.37 0.42 0.37 0.28 0.22 0.27 0.31 0.34 0.36 0.30 0.38 0.43 0.45 0.49 0.48 0.42 0.43 0.46 0.47 0.49
0.31 0.30 0.30 0.31 0.31 0.32 0.27 0.24 0.29 0.41 0.46 0.33 0.25 0.26 0.35 0.38 0.40 0.40 0.42 0.45 0.40 0.39 0.35 0.29 0.28 0.30 0.33 0.26 0.21 0.30 0.31 0.33 0.38 0.41 0.41 0.42 0.47 0.43 0.48 0.46 0.46 0.49 0.51 0.52
0.30 0.30 0.30 0.30 0.30 0.32 0.26 0.27 0.34 0.33 0.29 0.32 0.27 0.24 0.28 0.41 0.34 0.32 0.42 0.38 0.40 0.39 0.36 0.34 0.30 0.33 0.33 0.23 0.30 0.33 0.34 0.36 0.36 0.40 0.44 0.48 0.50 0.47 0.45 0.48 0.47 0.45 0.46 0.48
0.30 0.30 0.29 0.25 0.26 0.27 0.28 0.43 0.46 0.48 0.43 0.31 0.31 0.22 0.20 0.43 0.38 0.40 0.41 0.42 0.33 0.41 0.32 0.29 0.32 0.26 0.21 0.21 0.26 0.32 0.34 0.34 0.35 0.40 0.43 0.51 0.44 0.42 0.44 0.46 0.46 0.44 0.45 0.48
0.30 0.26 0.21 0.20 0.41 0.55 0.59 0.54 0.45 0.45 0.44 0.42 0.33 0.38 0.28 0.38 0.38 0.36 0.37 0.39 0.32 0.27 0.30 0.36 0.31 0.24 0.24 0.28 0.33 0.37 0.35 0.35 0.38 0.38 0.41 0.48 0.44 0.44 0.44 0.44 0.45 0.45 0.45 0.47
0.24 0.20 0.18 0.29 0.41 0.44 0.46 0.37 0.35 0.38 0.32 0.37 0.37 0.37 0.34 0.45 0.33 0.33 0.39 0.32 0.34 0.24 0.26 0.29 0.25 0.25 0.29 0.33 0.34 0.36 0.34 0.39 0.42 0.46 0.48 0.53 0.51 0.47 0.45 0.45 0.46 0.46 0.47 0.46
0.26 0.30 0.39 0.41 0.39 0.38 0.33 0.30 0.33 0.30 0.28 0.37 0.35 0.36 0.40 0.42 0.47 0.35 0.37 0.30 0.32 0.23 0.38 0.30 0.22 0.23 0.33 0.38 0.39 0.41 0.42 0.43 0.46 0.50 0.53 0.55 0.51 0.52 0.50 0.48 0.48 0.49 0.50 0.51
0.29 0.32 0.32 0.32 0.33 0.26 0.25 0.22 0.26 0.28 0.35 0.38 0.38 0.35 0.40 0.42 0.42 0.37 0.34 0.28 0.26 0.39 0.29 0.25 0.26 0.34 0.38 0.37 0.38 0.41 0.44 0.43 0.45 0.50 0.55 0.53 0.53 0.53 0.52 0.51 0.52 0.51 0.50 0.51
0.26 0.27 0.23 0.25 0.23 0.25 0.26 0.27 0.29 0.34 0.37 0.38 0.40 0.37 0.37 0.40 0.34 0.35 0.29 0.33 0.34 0.25 0.23 0.24 0.33 0.37 0.42 0.41 0.42 0.42 0.44 0.45 0.46 0.51 0.52 0.51 0.51 0.51 0.51 0.50 0.50 0.50 0.49 0.49
0.25 0.28 0.21 0.23 0.28 0.30 0.31 0.34 0.34 0.38 0.41 0.39 0.39 0.39 0.40 0.36 0.33 0.33 0.29 0.27 0.24 0.26 0.24 0.30 0.37 0.41 0.43 0.44 0.46 0.47 0.49 0.51 0.52 0.52 0.49 0.48 0.47 0.46 0.46 0.47 0.46 0.46 0.46 0.44
0.29 0.27 0.23 0.26 0.26 0.27 0.30 0.32 0.33 0.39 0.39 0.41 0.41 0.36 0.32 0.30 0.32 0.28 0.26 0.25 0.23 0.27 0.32 0.36 0.39 0.40 0.42 0.43 0.44 0.46 0.49 0.49 0.49 0.48 0.47 0.45 0.44 0.43 0.42 0.43 0.42 0.42 0.42 0.41
0.26 0.24 0.29 0.28 0.28 0.27 0.30 0.33 0.35 0.41 0.36 0.32 0.34 0.29 0.28 0.33 0.28 0.26 0.30 0.26 0.30 0.34 0.35 0.38 0.40 0.40 0.41 0.43 0.44 0.44 0.44 0.44 0.43 0.43 0.43 0.43 0.43 0.42 0.40 0.38 0.37 0.37 0.36 0.36